| time (UTC) | temp F | wind direction | speed MPH | gust MPH | rain 1hr in | rain 24hr in | rain mn in | humidity % | barometer mb |
| 20260510220553 | 56 | 248 | 8.0 | 12.0 | 0.00 | 0.00 | 0.00 | 87 | |
| 20260510220025 | 57 | 248 | 6.0 | 9.0 | 0.00 | 0.00 | 0.00 | 87 | |
| 20260510215020 | 57 | 225 | 5.0 | 10.0 | 0.00 | 0.00 | 0.00 | 88 | |
| 20260510214542 | 56 | 248 | 5.0 | 10.0 | 0.00 | 0.00 | 0.00 | 88 | |
| 20260510214021 | 56 | 248 | 5.0 | 10.0 | 0.00 | 0.00 | 0.00 | 89 | |
| 20260510213521 | 56 | 203 | 11.0 | 15.0 | 0.00 | 0.00 | 0.00 | 88 | |
| 20260510213020 | 56 | 203 | 15.0 | 18.0 | 0.00 | 0.00 | 0.00 | 88 | |
| 20260510212524 | 56 | 203 | 15.0 | 18.0 | 0.00 | 0.00 | 0.00 | 88 | |
| 20260510212020 | 56 | 203 | 15.0 | 17.0 | 0.00 | 0.00 | 0.00 | 88 | |
| 20260510211525 | 56 | 203 | 15.0 | 18.0 | 0.00 | 0.00 | 0.00 | 88 | |
| 20260510211020 | 56 | 203 | 16.0 | 18.0 | 0.00 | 0.00 | 0.00 | 88 | |
| 20260510210525 | 56 | 203 | 15.0 | 18.0 | 0.00 | 0.00 | 0.00 | 88 | |
| 20260510210020 | 56 | 203 | 15.0 | 17.0 | 0.00 | 0.00 | 0.00 | 88 | |
| 20260510205520 | 56 | 203 | 15.0 | 16.0 | 0.00 | 0.00 | 0.00 | 88 | |
| 20260510205020 | 56 | 203 | 16.0 | 19.0 | 0.00 | 0.00 | 0.00 | 88 | |
| 20260510204521 | 56 | 203 | 17.0 | 19.0 | 0.00 | 0.00 | 0.00 | 88 | |
| 20260510204020 | 56 | 203 | 18.0 | 21.0 | 0.00 | 0.00 | 0.00 | 88 | |
| 20260510203541 | 56 | 180 | 16.0 | 20.0 | 0.00 | 0.00 | 0.00 | 88 | |
| 20260510203020 | 56 | 180 | 15.0 | 17.0 | 0.00 | 0.00 | 0.00 | 88 | |
| 20260510202520 | 56 | 180 | 13.0 | 17.0 | 0.00 | 0.00 | 0.00 | 88 | |
| 20260510202020 | 57 | 203 | 7.0 | 10.0 | 0.00 | 0.00 | 0.00 | 88 | |
| 20260510201523 | 57 | 225 | 6.0 | 8.0 | 0.00 | 0.00 | 0.00 | 89 | |
| 20260510201021 | 57 | 225 | 6.0 | 9.0 | 0.00 | 0.00 | 0.00 | 89 | |
| 20260510195520 | 57 | 203 | 7.0 | 9.0 | 0.00 | 0.00 | 0.00 | 90 | |
| 20260510195020 | 56 | 203 | 7.0 | 10.0 | 0.00 | 0.00 | 0.00 | 90 | |
| 20260510194521 | 57 | 203 | 6.0 | 8.0 | 0.00 | 0.00 | 0.00 | 90 | |
| 20260510193020 | 56 | 203 | 6.0 | 9.0 | 0.00 | 0.00 | 0.00 | 91 | |
| 20260510192520 | 56 | 203 | 7.0 | 11.0 | 0.00 | 0.00 | 0.00 | 91 | |
| 20260510192020 | 56 | 180 | 7.0 | 11.0 | 0.00 | 0.00 | 0.00 | 91 | |
| 20260510191021 | 55 | 180 | 6.0 | 8.0 | 0.00 | 0.00 | 0.00 | 91 | |
| 20260510190520 | 55 | 180 | 6.0 | 8.0 | 0.00 | 0.00 | 0.00 | 91 | |
| 20260510190021 | 55 | 158 | 6.0 | 10.0 | 0.00 | 0.00 | 0.00 | 91 | |
| 20260510185520 | 55 | 180 | 7.0 | 9.0 | 0.00 | 0.00 | 0.00 | 92 | |
| 20260510185019 | 55 | 180 | 7.0 | 9.0 | 0.00 | 0.00 | 0.00 | 92 | |
| 20260510184520 | 55 | 180 | 8.0 | 10.0 | 0.00 | 0.00 | 0.00 | 92 | |
| 20260510184020 | 55 | 180 | 8.0 | 11.0 | 0.00 | 0.00 | 0.00 | 92 | |
| 20260510183520 | 55 | 180 | 7.0 | 9.0 | 0.00 | 0.00 | 0.00 | 92 | |
| 20260510183041 | 55 | 180 | 8.0 | 10.0 | 0.00 | 0.00 | 0.00 | 92 | |
| 20260510182520 | 55 | 180 | 7.0 | 9.0 | 0.00 | 0.00 | 0.00 | 92 | |
| 20260510182020 | 56 | 180 | 7.0 | 9.0 | 0.00 | 0.00 | 0.00 | 93 | |
| 20260510181519 | 55 | 203 | 6.0 | 9.0 | 0.00 | 0.00 | 0.00 | 93 | |
| 20260510181019 | 55 | 203 | 6.0 | 8.0 | 0.00 | 0.00 | 0.00 | 94 | |
| 20260510180530 | 55 | 203 | 6.0 | 7.0 | 0.00 | 0.00 | 0.00 | 94 | |
| 20260510180043 | 55 | 203 | 6.0 | 7.0 | 0.00 | 0.00 | 0.00 | 94 | |
| 20260510175020 | 54 | 203 | 7.0 | 9.0 | 0.00 | 0.00 | 0.00 | 94 | |
| 20260510174540 | 54 | 203 | 6.0 | 8.0 | 0.00 | 0.00 | 0.00 | 94 | |
| 20260510174019 | 54 | 203 | 6.0 | 9.0 | 0.00 | 0.00 | 0.00 | 94 | |
| 20260510173539 | 54 | 203 | 6.0 | 8.0 | 0.00 | 0.00 | 0.00 | 94 | |
| 20260510173019 | 53 | 203 | 7.0 | 9.0 | 0.00 | 0.00 | 0.00 | 94 | |
| 20260510172520 | 54 | 203 | 9.0 | 10.0 | 0.00 | 0.00 | 0.00 | 94 | |
| 20260510172019 | 54 | 180 | 10.0 | 11.0 | 0.00 | 0.00 | 0.00 | 94 | |
| 20260510171519 | 53 | 180 | 10.0 | 11.0 | 0.00 | 0.00 | 0.00 | 94 | |
| 20260510171019 | 53 | 203 | 11.0 | 12.0 | 0.00 | 0.00 | 0.00 | 95 | |
| 20260510170520 | 53 | 203 | 11.0 | 13.0 | 0.00 | 0.00 | 0.00 | 95 | |
| 20260510170039 | 53 | 203 | 11.0 | 13.0 | 0.00 | 0.00 | 0.00 | 94 | |
| 20260510165524 | 53 | 203 | 12.0 | 14.0 | 0.00 | 0.00 | 0.00 | 95 | |
| 20260510165021 | 53 | 203 | 11.0 | 13.0 | 0.00 | 0.00 | 0.00 | 95 | |
| 20260510164523 | 52 | 203 | 11.0 | 14.0 | 0.00 | 0.00 | 0.00 | 94 | |
| 20260510164022 | 52 | 203 | 11.0 | 14.0 | 0.00 | 0.00 | 0.00 | 94 | |
| 20260510163522 | 52 | 203 | 11.0 | 13.0 | 0.00 | 0.00 | 0.00 | 94 | |
| 20260510163025 | 52 | 203 | 12.0 | 14.0 | 0.00 | 0.00 | 0.00 | 94 | |
| 20260510162521 | 52 | 203 | 12.0 | 15.0 | 0.00 | 0.00 | 0.00 | 94 | |
| 20260510162021 | 53 | 203 | 12.0 | 14.0 | 0.00 | 0.00 | 0.00 | 94 | |
| 20260510161528 | 53 | 203 | 12.0 | 14.0 | 0.00 | 0.00 | 0.00 | 94 | |
| 20260510161021 | 53 | 180 | 11.0 | 13.0 | 0.00 | 0.00 | 0.00 | 94 | |
| 20260510160024 | 53 | 180 | 11.0 | 13.0 | 0.00 | 0.00 | 0.00 | 94 | |
| 20260510154522 | 52 | 203 | 10.0 | 13.0 | 0.00 | 0.00 | 0.00 | 94 | |
| 20260510154021 | 52 | 180 | 8.0 | 10.0 | 0.00 | 0.00 | 0.00 | 94 | |
| 20260510153542 | 52 | 180 | 6.0 | 8.0 | 0.00 | 0.00 | 0.00 | 94 | |
| 20260510151521 | 52 | 180 | 9.0 | 10.0 | 0.00 | 0.00 | 0.00 | 94 | |
| 20260510151021 | 53 | 180 | 8.0 | 9.0 | 0.00 | 0.00 | 0.00 | 94 | |
| 20260510150541 | 53 | 180 | 6.0 | 8.0 | 0.00 | 0.00 | 0.00 | 94 | |
| 20260510150022 | 53 | 203 | 6.0 | 7.0 | 0.00 | 0.00 | 0.00 | 94 | |
| 20260510145541 | 53 | 180 | 5.0 | 7.0 | 0.00 | 0.00 | 0.00 | 94 | |
| 20260510145022 | 53 | 180 | 6.0 | 7.0 | 0.00 | 0.00 | 0.00 | 94 | |
| 20260510144521 | 53 | 180 | 4.0 | 5.0 | 0.00 | 0.00 | 0.00 | 94 | |
| 20260510144021 | 53 | 180 | 4.0 | 6.0 | 0.00 | 0.00 | 0.00 | 94 | |
| 20260510143521 | 53 | 180 | 5.0 | 6.0 | 0.00 | 0.00 | 0.00 | 94 | |
| 20260510143021 | 53 | 203 | 5.0 | 6.0 | 0.00 | 0.00 | 0.00 | 94 | |
| 20260510142523 | 53 | 180 | 5.0 | 6.0 | 0.00 | 0.00 | 0.00 | 94 | |
| 20260510140023 | 53 | 203 | 6.0 | 8.0 | 0.00 | 0.00 | 0.00 | 94 | |
| 20260510135521 | 53 | 225 | 4.0 | 9.0 | 0.00 | 0.00 | 0.00 | 94 | |
| 20260510135021 | 0 | 225 | 4.0 | 8.0 | 0.00 | 0.00 | 0.00 | ||
| 20260510134544 | 0 | 248 | 6.0 | 9.0 | 0.00 | 0.00 | 0.00 | ||
| 20260510134021 | 0 | 248 | 7.0 | 10.0 | 0.00 | 0.00 | 0.00 | ||
| 20260510133522 | 0 | 225 | 6.0 | 11.0 | 0.00 | 0.00 | 0.00 | ||
| 20260510133021 | 0 | 225 | 8.0 | 11.0 | 0.00 | 0.00 | 0.00 | ||
| 20260510132521 | 0 | 225 | 8.0 | 11.0 | 0.00 | 0.00 | 0.00 | ||
| 20260510132021 | 0 | 225 | 9.0 | 12.0 | 0.00 | 0.00 | 0.00 | ||
| 20260510131521 | 0 | 203 | 10.0 | 12.0 | 0.00 | 0.00 | 0.00 | ||
| 20260510131021 | 0 | 203 | 10.0 | 12.0 | 0.00 | 0.00 | 0.00 | ||
| 20260510130520 | 0 | 225 | 8.0 | 12.0 | 0.00 | 0.00 | 0.00 | ||
| 20260510125020 | 0 | 203 | 9.0 | 11.0 | 0.00 | 0.00 | 0.00 | ||
| 20260510124521 | 0 | 225 | 7.0 | 12.0 | 0.00 | 0.00 | 0.00 | ||
| 20260510124024 | 0 | 248 | 9.0 | 12.0 | 0.00 | 0.00 | 0.00 | ||
| 20260510123605 | 0 | 248 | 10.0 | 13.0 | 0.00 | 0.00 | 0.00 | ||
| 20260510123057 | 0 | 225 | 8.0 | 12.0 | 0.00 | 0.00 | 0.00 | ||
| 20260510122521 | 0 | 225 | 7.0 | 12.0 | 0.00 | 0.00 | 0.00 | ||
| 20260510122025 | 0 | 225 | 7.0 | 12.0 | 0.00 | 0.00 | 0.00 | ||
| 20260510121521 | 0 | 225 | 8.0 | 12.0 | 0.00 | 0.00 | 0.00 | ||
| 20260510121021 | 0 | 203 | 11.0 | 13.0 | 0.00 | 0.00 | 0.00 | ||
| 20260510120554 | 0 | 203 | 11.0 | 13.0 | 0.00 | 0.00 | 0.00 | ||
| 20260510120027 | 0 | 203 | 12.0 | 14.0 | 0.00 | 0.00 | 0.00 | ||
| 20260510115522 | 0 | 203 | 12.0 | 15.0 | 0.00 | 0.00 | 0.00 | ||
| 20260510115041 | 0 | 203 | 13.0 | 16.0 | 0.00 | 0.00 | 0.00 | ||
| 20260510114520 | 0 | 203 | 14.0 | 16.0 | 0.00 | 0.00 | 0.00 | ||
| 20260510114057 | 0 | 203 | 14.0 | 19.0 | 0.00 | 0.00 | 0.00 | ||
| 20260510113541 | 0 | 225 | 12.0 | 15.0 | 0.00 | 0.00 | 0.00 | ||
| 20260510113020 | 0 | 225 | 10.0 | 15.0 | 0.00 | 0.00 | 0.00 | ||
| 20260510112521 | 0 | 225 | 10.0 | 14.0 | 0.00 | 0.00 | 0.00 | ||
| 20260510112024 | 0 | 225 | 10.0 | 15.0 | 0.00 | 0.00 | 0.00 | ||
| 20260510111541 | 0 | 225 | 9.0 | 16.0 | 0.00 | 0.00 | 0.00 | ||
| 20260510111022 | 0 | 225 | 11.0 | 17.0 | 0.00 | 0.00 | 0.00 | ||
| 20260510110519 | 0 | 225 | 7.0 | 13.0 | 0.00 | 0.00 | 0.00 | ||
| 20260510110021 | 0 | 225 | 9.0 | 13.0 | 0.00 | 0.00 | 0.00 | ||
| 20260510105601 | 0 | 225 | 7.0 | 12.0 | 0.00 | 0.00 | 0.00 | ||
| 20260510105021 | 0 | 225 | 7.0 | 13.0 | 0.00 | 0.00 | 0.00 | ||
| 20260510104520 | 0 | 225 | 8.0 | 13.0 | 0.00 | 0.00 | 0.00 | ||
| 20260510104024 | 0 | 225 | 8.0 | 14.0 | 0.00 | 0.00 | 0.00 | ||
| 20260510103540 | 0 | 225 | 8.0 | 15.0 | 0.00 | 0.00 | 0.00 | ||
| 20260510103040 | 0 | 248 | 11.0 | 15.0 | 0.00 | 0.00 | 0.00 | ||
| 20260510102021 | 0 | 225 | 8.0 | 15.0 | 0.00 | 0.00 | 0.00 | ||
| 20260510101522 | 0 | 225 | 12.0 | 17.0 | 0.00 | 0.00 | 0.00 | ||
| 20260510101020 | 0 | 225 | 8.0 | 14.0 | 0.00 | 0.00 | 0.00 | ||
| 20260510100545 | 0 | 225 | 7.0 | 12.0 | 0.00 | 0.00 | 0.00 | ||
| 20260510100024 | 0 | 225 | 8.0 | 13.0 | 0.00 | 0.00 | 0.00 | ||
| 20260510095520 | 0 | 225 | 8.0 | 12.0 | 0.00 | 0.00 | 0.00 | ||
| 20260510095024 | 0 | 225 | 9.0 | 12.0 | 0.00 | 0.00 | 0.00 | ||
| 20260510093520 | 0 | 225 | 8.0 | 12.0 | 0.00 | 0.00 | 0.00 | ||
| 20260510093041 | 0 | 248 | 9.0 | 13.0 | 0.00 | 0.00 | 0.00 | ||
| 20260510092520 | 0 | 248 | 9.0 | 14.0 | 0.00 | 0.00 | 0.00 | ||
| 20260510092023 | 0 | 248 | 9.0 | 12.0 | 0.00 | 0.00 | 0.00 | ||
| 20260510091520 | 0 | 225 | 7.0 | 13.0 | 0.00 | 0.00 | 0.00 | ||
| 20260510091020 | 0 | 225 | 6.0 | 10.0 | 0.00 | 0.00 | 0.00 | ||
| 20260510090521 | 0 | 225 | 7.0 | 10.0 | 0.00 | 0.00 | 0.00 | ||
| 20260510090020 | 0 | 225 | 5.0 | 9.0 | 0.00 | 0.00 | 0.00 | ||
| 20260510085520 | 0 | 225 | 6.0 | 10.0 | 0.00 | 0.00 | 0.00 | ||
| 20260510085026 | 0 | 225 | 8.0 | 11.0 | 0.00 | 0.00 | 0.00 | ||
| 20260510084521 | 0 | 225 | 7.0 | 11.0 | 0.00 | 0.00 | 0.00 | ||
| 20260510084020 | 0 | 225 | 6.0 | 11.0 | 0.00 | 0.00 | 0.00 | ||
| 20260510083520 | 0 | 225 | 6.0 | 10.0 | 0.00 | 0.00 | 0.00 | ||
| 20260510083021 | 0 | 248 | 8.0 | 11.0 | 0.00 | 0.00 | 0.00 | ||
| 20260510082521 | 0 | 248 | 9.0 | 12.0 | 0.00 | 0.00 | 0.00 | ||
| 20260510081521 | 0 | 225 | 5.0 | 9.0 | 0.00 | 0.00 | 0.00 | ||
| 20260510081021 | 0 | 248 | 7.0 | 10.0 | 0.00 | 0.00 | 0.00 | ||
| 20260510080523 | 0 | 248 | 7.0 | 9.0 | 0.00 | 0.00 | 0.00 | ||
| 20260510080026 | 0 | 248 | 8.0 | 10.0 | 0.00 | 0.00 | 0.00 | ||
| 20260510075520 | 0 | 225 | 8.0 | 11.0 | 0.00 | 0.00 | 0.00 | ||
| 20260510075020 | 0 | 225 | 8.0 | 13.0 | 0.00 | 0.00 | 0.00 | ||
| 20260510074520 | 0 | 225 | 9.0 | 15.0 | 0.00 | 0.00 | 0.00 | ||
| 20260510074025 | 0 | 225 | 8.0 | 12.0 | 0.00 | 0.00 | 0.00 | ||
| 20260510073520 | 0 | 225 | 7.0 | 11.0 | 0.00 | 0.00 | 0.00 | ||
| 20260510073020 | 0 | 225 | 6.0 | 10.0 | 0.00 | 0.00 | 0.00 | ||
| 20260510072521 | 0 | 225 | 6.0 | 11.0 | 0.00 | 0.00 | 0.00 | ||
| 20260510072042 | 0 | 225 | 7.0 | 12.0 | 0.00 | 0.00 | 0.00 | ||
| 20260510071520 | 0 | 225 | 8.0 | 13.0 | 0.00 | 0.00 | 0.00 | ||
| 20260510071021 | 0 | 225 | 6.0 | 11.0 | 0.00 | 0.00 | 0.00 | ||
| 20260510070520 | 0 | 225 | 6.0 | 11.0 | 0.00 | 0.00 | 0.00 | ||
| 20260510070020 | 0 | 225 | 8.0 | 11.0 | 0.00 | 0.00 | 0.00 | ||
| 20260510065520 | 0 | 203 | 9.0 | 12.0 | 0.00 | 0.00 | 0.00 | ||
| 20260510065020 | 0 | 203 | 8.0 | 10.0 | 0.00 | 0.00 | 0.00 | ||
| 20260510064520 | 0 | 203 | 9.0 | 10.0 | 0.00 | 0.00 | 0.00 | ||
| 20260510064020 | 0 | 203 | 8.0 | 10.0 | 0.00 | 0.00 | 0.00 | ||
| 20260510063520 | 0 | 203 | 8.0 | 10.0 | 0.00 | 0.00 | 0.00 | ||
| 20260510063024 | 0 | 203 | 7.0 | 9.0 | 0.00 | 0.00 | 0.00 | ||
| 20260510062020 | 0 | 203 | 6.0 | 7.0 | 0.00 | 0.00 | 0.00 | ||
| 20260510061520 | 0 | 203 | 5.0 | 6.0 | 0.00 | 0.00 | 0.00 | ||
| 20260510061044 | 0 | 203 | 5.0 | 7.0 | 0.00 | 0.00 | 0.00 | ||
| 20260510060604 | 0 | 203 | 6.0 | 7.0 | 0.00 | 0.00 | 0.00 | ||
| 20260510054540 | 0 | 203 | 8.0 | 10.0 | 0.00 | 0.00 | 0.00 | ||
| 20260510054020 | 0 | 180 | 9.0 | 11.0 | 0.00 | 0.00 | 0.00 | ||
| 20260510053521 | 0 | 180 | 9.0 | 12.0 | 0.00 | 0.00 | 0.00 | ||
| 20260510052523 | 0 | 180 | 10.0 | 12.0 | 0.00 | 0.00 | 0.00 | ||
| 20260510051520 | 0 | 158 | 6.0 | 8.0 | 0.00 | 0.00 | 0.00 | ||
| 20260510050020 | 0 | 113 | 3.0 | 6.0 | 0.00 | 0.00 | 0.00 | ||
| 20260510045520 | 0 | 113 | 2.0 | 3.0 | 0.00 | 0.00 | 0.00 | ||
| 20260510045100 | 0 | 113 | 1.0 | 3.0 | 0.00 | 0.00 | 0.00 | ||
| 20260510043519 | 0 | 135 | 3.0 | 4.0 | 0.00 | 0.00 | 0.00 | ||
| 20260510042519 | 0 | 180 | 6.0 | 9.0 | 0.00 | 0.00 | 0.00 | ||
| 20260510042019 | 0 | 180 | 8.0 | 11.0 | 0.00 | 0.00 | 0.00 | ||
| 20260510041520 | 0 | 180 | 7.0 | 11.0 | 0.00 | 0.00 | 0.00 | ||
| 20260510041040 | 0 | 180 | 7.0 | 9.0 | 0.00 | 0.00 | 0.00 | ||
| 20260510040537 | 0 | 180 | 9.0 | 11.0 | 0.00 | 0.00 | 0.00 | ||
| 20260510040100 | 0 | 180 | 10.0 | 14.0 | 0.00 | 0.00 | 0.00 | ||
| 20260510035524 | 0 | 180 | 14.0 | 17.0 | 0.00 | 0.00 | 0.00 | ||
| 20260510035023 | 0 | 180 | 14.0 | 17.0 | 0.00 | 0.00 | 0.00 | ||
| 20260510034521 | 0 | 180 | 14.0 | 16.0 | 0.00 | 0.00 | 0.00 | ||
| 20260510034021 | 0 | 180 | 13.0 | 15.0 | 0.00 | 0.00 | 0.00 | ||
| 20260510033521 | 0 | 180 | 15.0 | 17.0 | 0.00 | 0.00 | 0.00 | ||
| 20260510033045 | 0 | 180 | 15.0 | 18.0 | 0.00 | 0.00 | 0.00 | ||
| 20260510032521 | 0 | 180 | 14.0 | 17.0 | 0.00 | 0.00 | 0.00 | ||
| 20260510032020 | 0 | 203 | 14.0 | 17.0 | 0.00 | 0.00 | 0.00 | ||
| 20260510031057 | 0 | 180 | 13.0 | 16.0 | 0.00 | 0.00 | 0.00 | ||
| 20260510030520 | 0 | 180 | 12.0 | 14.0 | 0.00 | 0.00 | 0.00 | ||
| 20260510030020 | 0 | 180 | 12.0 | 15.0 | 0.00 | 0.00 | 0.00 | ||
| 20260510025520 | 0 | 180 | 13.0 | 15.0 | 0.00 | 0.00 | 0.00 | ||
| 20260510025020 | 0 | 180 | 13.0 | 15.0 | 0.00 | 0.00 | 0.00 | ||
| 20260510024520 | 0 | 203 | 13.0 | 15.0 | 0.00 | 0.00 | 0.00 | ||
| 20260510023519 | 0 | 203 | 14.0 | 17.0 | 0.00 | 0.00 | 0.00 | ||
| 20260510023025 | 0 | 203 | 16.0 | 19.0 | 0.00 | 0.00 | 0.00 | ||
| 20260510022520 | 0 | 203 | 17.0 | 19.0 | 0.00 | 0.00 | 0.00 | ||
| 20260510022021 | 0 | 203 | 17.0 | 20.0 | 0.00 | 0.00 | 0.00 | ||
| 20260510021520 | 0 | 203 | 18.0 | 20.0 | 0.00 | 0.00 | 0.00 | ||
| 20260510021042 | 0 | 203 | 17.0 | 19.0 | 0.00 | 0.00 | 0.00 | ||
| 20260510020529 | 0 | 203 | 18.0 | 21.0 | 0.00 | 0.00 | 0.00 | ||
| 20260510020024 | 0 | 203 | 18.0 | 21.0 | 0.00 | 0.00 | 0.00 | ||
| 20260510015541 | 0 | 203 | 19.0 | 21.0 | 0.00 | 0.00 | 0.00 | ||
| 20260510015020 | 0 | 203 | 19.0 | 23.0 | 0.00 | 0.00 | 0.00 | ||
| 20260510014521 | 0 | 203 | 19.0 | 22.0 | 0.00 | 0.00 | 0.00 | ||
| 20260510014020 | 0 | 203 | 20.0 | 24.0 | 0.00 | 0.00 | 0.00 | ||
| 20260510013601 | 0 | 203 | 18.0 | 22.0 | 0.00 | 0.00 | 0.00 | ||
| 20260510013021 | 0 | 203 | 18.0 | 23.0 | 0.00 | 0.00 | 0.00 | ||
| 20260510012542 | 0 | 203 | 19.0 | 22.0 | 0.00 | 0.00 | 0.00 | ||
| 20260510012020 | 0 | 203 | 19.0 | 21.0 | 0.00 | 0.00 | 0.00 | ||
| 20260510011520 | 0 | 203 | 17.0 | 20.0 | 0.00 | 0.00 | 0.00 | ||
| 20260510011042 | 0 | 203 | 13.0 | 19.0 | 0.00 | 0.00 | 0.00 | ||
| 20260510010520 | 0 | 225 | 12.0 | 15.0 | 0.00 | 0.00 | 0.00 | ||
| 20260510005520 | 0 | 225 | 11.0 | 15.0 | 0.00 | 0.00 | 0.00 | ||
| 20260510005020 | 0 | 225 | 11.0 | 15.0 | 0.00 | 0.00 | 0.00 | ||
| 20260510004520 | 0 | 225 | 11.0 | 17.0 | 0.00 | 0.00 | 0.00 | ||
| 20260510004021 | 0 | 225 | 11.0 | 15.0 | 0.00 | 0.00 | 0.00 | ||
| 20260510003542 | 0 | 225 | 8.0 | 14.0 | 0.00 | 0.00 | 0.00 | ||
| 20260510003020 | 0 | 225 | 9.0 | 14.0 | 0.00 | 0.00 | 0.00 | ||
| 20260510002540 | 0 | 225 | 10.0 | 15.0 | 0.00 | 0.00 | 0.00 | ||
| 20260510002043 | 0 | 248 | 9.0 | 14.0 | 0.00 | 0.00 | 0.00 | ||
| 20260510001542 | 0 | 225 | 11.0 | 17.0 | 0.00 | 0.00 | 0.00 | ||
| 20260510001021 | 0 | 225 | 16.0 | 22.0 | 0.00 | 0.00 | 0.00 | ||
| 20260510000523 | 0 | 225 | 17.0 | 23.0 | 0.00 | 0.00 | 0.00 | ||
| 20260510000026 | 0 | 203 | 19.0 | 23.0 | 0.00 | 0.00 | 0.00 | ||
| 20260509235520 | 0 | 203 | 21.0 | 25.0 | 0.00 | 0.00 | 0.00 | ||
| 20260509235020 | 0 | 203 | 21.0 | 25.0 | 0.00 | 0.00 | 0.00 | ||
| 20260509234521 | 0 | 203 | 21.0 | 27.0 | 0.00 | 0.00 | 0.00 | ||
| 20260509234020 | 0 | 203 | 21.0 | 26.0 | 0.00 | 0.00 | 0.00 | ||
| 20260509233520 | 0 | 203 | 21.0 | 25.0 | 0.00 | 0.00 | 0.00 | ||
| 20260509233020 | 0 | 203 | 20.0 | 25.0 | 0.00 | 0.00 | 0.00 | ||
| 20260509232520 | 0 | 225 | 11.0 | 18.0 | 0.00 | 0.00 | 0.00 | ||
| 20260509232040 | 0 | 225 | 9.0 | 14.0 | 0.00 | 0.00 | 0.00 | ||
| 20260509231521 | 0 | 225 | 7.0 | 13.0 | 0.00 | 0.00 | 0.00 | ||
| 20260509231020 | 0 | 225 | 9.0 | 15.0 | 0.00 | 0.00 | 0.00 | ||
| 20260509230521 | 0 | 225 | 12.0 | 17.0 | 0.00 | 0.00 | 0.00 | ||
| 20260509230021 | 0 | 203 | 14.0 | 16.0 | 0.00 | 0.00 | 0.00 | ||
| 20260509225540 | 0 | 203 | 13.0 | 15.0 | 0.00 | 0.00 | 0.00 | ||
| 20260509225020 | 0 | 203 | 12.0 | 15.0 | 0.00 | 0.00 | 0.00 | ||
| 20260509224524 | 0 | 203 | 11.0 | 14.0 | 0.00 | 0.00 | 0.00 | ||
| 20260509224021 | 0 | 203 | 11.0 | 15.0 | 0.00 | 0.00 | 0.00 | ||
| 20260509223520 | 0 | 203 | 10.0 | 13.0 | 0.00 | 0.00 | 0.00 | ||
| 20260509223020 | 0 | 203 | 6.0 | 9.0 | 0.00 | 0.00 | 0.00 | ||
| 20260509222520 | 0 | 203 | 4.0 | 7.0 | 0.00 | 0.00 | 0.00 | ||
| 20260509222022 | 0 | 270 | 3.0 | 4.0 | 0.00 | 0.00 | 0.00 | ||
| 20260509221520 | 0 | 270 | 3.0 | 4.0 | 0.00 | 0.00 | 0.00 |